Location: Frankfurt am Main
(50.1109°N, 8.6821°E)
Time: 17:58:10
(UTC+02:00)

ISS - Visible Passes

Search period start: 21 September 2019 00:00
Search period end: 01 October 2019 00:00
Orbit: 411 x 421 km, 51.6° (Epoch: 22 September)

Date Brightness Start Highest point End Pass type
(mag) Time Alt. Az. Time Alt. Az. Time Alt. Az.
21 Sep -2.7 20:36:19 10° SSW 20:39:12 27° SE 20:40:16 22° ESE visible
21 Sep -1.2 22:12:21 10° WSW 22:13:11 16° WSW 22:13:11 16° WSW visible
22 Sep -3.7 21:23:55 10° WSW 21:26:55 66° SSW 21:26:55 66° SSW visible
23 Sep -3.6 20:35:31 10° SW 20:38:47 53° SSE 20:40:31 24° E visible
23 Sep -1.3 22:12:12 10° W 22:13:24 21° W 22:13:24 21° W visible
24 Sep -3.0 19:47:16 10° SW 19:50:21 37° SSE 19:53:28 10° E visible
24 Sep -3.7 21:23:39 10° W 21:26:54 75° NNW 21:26:54 75° NNW visible
25 Sep -3.9 20:35:07 10° WSW 20:38:27 89° SSW 20:40:18 24° ENE visible
25 Sep -1.2 22:12:00 10° W 22:13:12 20° WNW 22:13:12 20° WNW visible
26 Sep -3.7 19:46:38 10° WSW 19:49:57 70° SSE 19:53:16 10° ENE visible
26 Sep -3.4 21:23:26 10° W 21:26:33 62° NNW 21:26:33 62° NNW visible
27 Sep -3.6 20:34:51 10° W 20:38:10 68° N 20:39:51 26° ENE visible
27 Sep -1.0 22:11:44 10° WNW 22:12:44 18° WNW 22:12:44 18° WNW visible
28 Sep -3.7 19:46:16 10° W 19:49:36 78° NNW 19:52:56 10° ENE visible
28 Sep -3.2 21:23:09 10° WNW 21:26:00 58° NW 21:26:00 58° NW visible
29 Sep -3.6 20:34:35 10° W 20:37:53 65° N 20:39:15 32° ENE visible
29 Sep -0.8 22:11:23 10° WNW 22:12:08 16° WNW 22:12:08 16° WNW visible
30 Sep -3.5 19:45:58 10° W 19:49:17 65° N 19:52:30 11° E visible
30 Sep -3.0 21:22:48 10° WNW 21:25:23 51° W 21:25:23 51° W visible
